owner,sensor,date,latitude,longitude,relative_humidity,qcFlag 
DISL,ioos:station:DISL:PPTA:1,2017-05-01T00:00:00Z,30.2791,-87.5561,93.6,1111122 
DISL,ioos:station:DISL:PPTA:1,2017-05-01T00:30:00Z,30.2791,-87.5561,93.8,1111122 
DISL,ioos:station:DISL:PPTA:1,2017-05-01T01:00:00Z,30.2791,-87.5561,93.9,1111122 
DISL,ioos:station:DISL:PPTA:1,2017-05-01T01:30:00Z,30.2791,-87.5561,94.4,1111122 
DISL,ioos:station:DISL:PPTA:1,2017-05-01T02:00:00Z,30.2791,-87.5561,94.5,1111122 
DISL,ioos:station:DISL:PPTA:1,2017-05-01T02:30:00Z,30.2791,-87.5561,94.8,1111122 
DISL,ioos:station:DISL:PPTA:1,2017-05-01T03:00:00Z,30.2791,-87.5561,95.3,1111122 
DISL,ioos:station:DISL:PPTA:1,2017-05-01T03:30:00Z,30.2791,-87.5561,96.0,1111122 
DISL,ioos:station:DISL:PPTA:1,2017-05-01T04:00:00Z,30.2791,-87.5561,97.2,1111122 
DISL,ioos:station:DISL:PPTA:1,2017-05-01T04:30:00Z,30.2791,-87.5561,98.6,1111122 
DISL,ioos:station:DISL:PPTA:1,2017-05-01T05:00:00Z,30.2791,-87.5561,97.0,1111122 
DISL,ioos:station:DISL:PPTA:1,2017-05-01T05:30:00Z,30.2791,-87.5561,93.8,1111122 
DISL,ioos:station:DISL:PPTA:1,2017-05-01T06:00:00Z,30.2791,-87.5561,95.0,1111122 
DISL,ioos:station:DISL:PPTA:1,2017-05-01T06:30:00Z,30.2791,-87.5561,95.5,1111122 
DISL,ioos:station:DISL:PPTA:1,2017-05-01T07:00:00Z,30.2791,-87.5561,95.7,1111122 
DISL,ioos:station:DISL:PPTA:1,2017-05-01T07:30:00Z,30.2791,-87.5561,96.0,1111122 
DISL,ioos:station:DISL:PPTA:1,2017-05-01T08:00:00Z,30.2791,-87.5561,95.1,1111122 
DISL,ioos:station:DISL:PPTA:1,2017-05-01T08:30:00Z,30.2791,-87.5561,94.8,1111122 
DISL,ioos:station:DISL:PPTA:1,2017-05-01T09:00:00Z,30.2791,-87.5561,94.8,1111122 
DISL,ioos:station:DISL:PPTA:1,2017-05-01T09:30:00Z,30.2791,-87.5561,96.6,1111122 
DISL,ioos:station:DISL:PPTA:1,2017-05-01T10:00:00Z,30.2791,-87.5561,92.9,1111122 
DISL,ioos:station:DISL:PPTA:1,2017-05-01T10:30:00Z,30.2791,-87.5561,88.8,1111122 
DISL,ioos:station:DISL:PPTA:1,2017-05-01T11:00:00Z,30.2791,-87.5561,82.2,1111122 
DISL,ioos:station:DISL:PPTA:1,2017-05-01T11:30:00Z,30.2791,-87.5561,75.59,1111122 
DISL,ioos:station:DISL:PPTA:1,2017-05-01T12:00:00Z,30.2791,-87.5561,77.98,1111122 
DISL,ioos:station:DISL:PPTA:1,2017-05-01T12:30:00Z,30.2791,-87.5561,73.58,1111122 
DISL,ioos:station:DISL:PPTA:1,2017-05-01T13:00:00Z,30.2791,-87.5561,72.42,1111122 
DISL,ioos:station:DISL:PPTA:1,2017-05-01T13:30:00Z,30.2791,-87.5561,67.02,1111122 
DISL,ioos:station:DISL:PPTA:1,2017-05-01T14:00:00Z,30.2791,-87.5561,67.94,1111122 
DISL,ioos:station:DISL:PPTA:1,2017-05-01T14:30:00Z,30.2791,-87.5561,68.04,1111122 
DISL,ioos:station:DISL:PPTA:1,2017-05-01T15:00:00Z,30.2791,-87.5561,67.7,1111122 
DISL,ioos:station:DISL:PPTA:1,2017-05-01T15:30:00Z,30.2791,-87.5561,60.56,1111122 
DISL,ioos:station:DISL:PPTA:1,2017-05-01T16:00:00Z,30.2791,-87.5561,53.11,1111122 
DISL,ioos:station:DISL:PPTA:1,2017-05-01T16:30:00Z,30.2791,-87.5561,51.98,1111122 
DISL,ioos:station:DISL:PPTA:1,2017-05-01T17:00:00Z,30.2791,-87.5561,47.19,1111122 
DISL,ioos:station:DISL:PPTA:1,2017-05-01T17:30:00Z,30.2791,-87.5561,42.82,1111122 
DISL,ioos:station:DISL:PPTA:1,2017-05-01T18:00:00Z,30.2791,-87.5561,38.03,1111122 
DISL,ioos:station:DISL:PPTA:1,2017-05-01T18:30:00Z,30.2791,-87.5561,36.12,1111122 
DISL,ioos:station:DISL:PPTA:1,2017-05-01T19:00:00Z,30.2791,-87.5561,35.39,1111122 
DISL,ioos:station:DISL:PPTA:1,2017-05-01T19:30:00Z,30.2791,-87.5561,43.74,1111122 
DISL,ioos:station:DISL:PPTA:1,2017-05-01T20:00:00Z,30.2791,-87.5561,39.35,1111122 
DISL,ioos:station:DISL:PPTA:1,2017-05-01T20:30:00Z,30.2791,-87.5561,42.35,1111122 
DISL,ioos:station:DISL:PPTA:1,2017-05-01T21:00:00Z,30.2791,-87.5561,38.74,1111122 
DISL,ioos:station:DISL:PPTA:1,2017-05-01T21:30:00Z,30.2791,-87.5561,21.93,1111122 
DISL,ioos:station:DISL:PPTA:1,2017-05-01T22:00:00Z,30.2791,-87.5561,21.58,1111122 
DISL,ioos:station:DISL:PPTA:1,2017-05-01T22:30:00Z,30.2791,-87.5561,21.89,1111122 
DISL,ioos:station:DISL:PPTA:1,2017-05-01T23:00:00Z,30.2791,-87.5561,24.55,1111122 
DISL,ioos:station:DISL:PPTA:1,2017-05-01T23:30:00Z,30.2791,-87.5561,45.18,1111122 
DISL,ioos:station:DISL:PPTA:1,2017-05-02T00:00:00Z,30.2791,-87.5561,50.77,1111122 
DISL,ioos:station:DISL:PPTA:1,2017-05-02T00:30:00Z,30.2791,-87.5561,54.84,1111122 
DISL,ioos:station:DISL:PPTA:1,2017-05-02T01:00:00Z,30.2791,-87.5561,57.47,1111122 
DISL,ioos:station:DISL:PPTA:1,2017-05-02T01:30:00Z,30.2791,-87.5561,60.56,1111122 
DISL,ioos:station:DISL:PPTA:1,2017-05-02T02:00:00Z,30.2791,-87.5561,64.72,1111122 
DISL,ioos:station:DISL:PPTA:1,2017-05-02T02:30:00Z,30.2791,-87.5561,66.98,1111122 
DISL,ioos:station:DISL:PPTA:1,2017-05-02T03:00:00Z,30.2791,-87.5561,68.73,1111122 
DISL,ioos:station:DISL:PPTA:1,2017-05-02T03:30:00Z,30.2791,-87.5561,72.42,1111122 
DISL,ioos:station:DISL:PPTA:1,2017-05-02T04:00:00Z,30.2791,-87.5561,74.37,1111122 
DISL,ioos:station:DISL:PPTA:1,2017-05-02T04:30:00Z,30.2791,-87.5561,76.9,1111122 
DISL,ioos:station:DISL:PPTA:1,2017-05-02T05:00:00Z,30.2791,-87.5561,79.74,1111122 
DISL,ioos:station:DISL:PPTA:1,2017-05-02T05:30:00Z,30.2791,-87.5561,79.0,1111122 
DISL,ioos:station:DISL:PPTA:1,2017-05-02T06:00:00Z,30.2791,-87.5561,80.1,1111122 
DISL,ioos:station:DISL:PPTA:1,2017-05-02T06:30:00Z,30.2791,-87.5561,84.1,1111122 
DISL,ioos:station:DISL:PPTA:1,2017-05-02T07:00:00Z,30.2791,-87.5561,86.7,1111122 
DISL,ioos:station:DISL:PPTA:1,2017-05-02T07:30:00Z,30.2791,-87.5561,88.6,1111122 
DISL,ioos:station:DISL:PPTA:1,2017-05-02T08:00:00Z,30.2791,-87.5561,89.5,1111122 
DISL,ioos:station:DISL:PPTA:1,2017-05-02T08:30:00Z,30.2791,-87.5561,85.1,1111122 
DISL,ioos:station:DISL:PPTA:1,2017-05-02T09:00:00Z,30.2791,-87.5561,85.6,1111122 
DISL,ioos:station:DISL:PPTA:1,2017-05-02T09:30:00Z,30.2791,-87.5561,85.6,1111122 
DISL,ioos:station:DISL:PPTA:1,2017-05-02T10:00:00Z,30.2791,-87.5561,85.1,1111122 
DISL,ioos:station:DISL:PPTA:1,2017-05-02T10:30:00Z,30.2791,-87.5561,81.9,1111122 
DISL,ioos:station:DISL:PPTA:1,2017-05-02T11:00:00Z,30.2791,-87.5561,73.37,1111122 
DISL,ioos:station:DISL:PPTA:1,2017-05-02T11:30:00Z,30.2791,-87.5561,69.24,1111122 
DISL,ioos:station:DISL:PPTA:1,2017-05-02T12:00:00Z,30.2791,-87.5561,66.56,1111122 
DISL,ioos:station:DISL:PPTA:1,2017-05-02T12:30:00Z,30.2791,-87.5561,60.71,1111122 
DISL,ioos:station:DISL:PPTA:1,2017-05-02T13:00:00Z,30.2791,-87.5561,63.82,1111122 
DISL,ioos:station:DISL:PPTA:1,2017-05-02T13:30:00Z,30.2791,-87.5561,61.15,1111122 
DISL,ioos:station:DISL:PPTA:1,2017-05-02T14:00:00Z,30.2791,-87.5561,59.6,1111122 
DISL,ioos:station:DISL:PPTA:1,2017-05-02T14:30:00Z,30.2791,-87.5561,54.41,1111122 
DISL,ioos:station:DISL:PPTA:1,2017-05-02T15:30:00Z,30.2791,-87.5561,40.42,1111122 
DISL,ioos:station:DISL:PPTA:1,2017-05-02T16:00:00Z,30.2791,-87.5561,40.55,1111122 
DISL,ioos:station:DISL:PPTA:1,2017-05-02T16:30:00Z,30.2791,-87.5561,34.75,1111122 
DISL,ioos:station:DISL:PPTA:1,2017-05-02T17:00:00Z,30.2791,-87.5561,36.52,1111122 
DISL,ioos:station:DISL:PPTA:1,2017-05-02T17:30:00Z,30.2791,-87.5561,38.71,1111122 
DISL,ioos:station:DISL:PPTA:1,2017-05-02T18:00:00Z,30.2791,-87.5561,41.12,1111122 
DISL,ioos:station:DISL:PPTA:1,2017-05-02T18:30:00Z,30.2791,-87.5561,40.78,1111122 
DISL,ioos:station:DISL:PPTA:1,2017-05-02T19:00:00Z,30.2791,-87.5561,43.27,1111122 
DISL,ioos:station:DISL:PPTA:1,2017-05-02T19:30:00Z,30.2791,-87.5561,46.95,1111122 
DISL,ioos:station:DISL:PPTA:1,2017-05-02T20:00:00Z,30.2791,-87.5561,44.71,1111122 
DISL,ioos:station:DISL:PPTA:1,2017-05-02T20:30:00Z,30.2791,-87.5561,44.31,1111122 
DISL,ioos:station:DISL:PPTA:1,2017-05-02T21:00:00Z,30.2791,-87.5561,41.45,1111122 
DISL,ioos:station:DISL:PPTA:1,2017-05-02T21:30:00Z,30.2791,-87.5561,38.93,1111122 
DISL,ioos:station:DISL:PPTA:1,2017-05-02T22:00:00Z,30.2791,-87.5561,40.47,1111122 
DISL,ioos:station:DISL:PPTA:1,2017-05-02T22:30:00Z,30.2791,-87.5561,42.04,1111122 
DISL,ioos:station:DISL:PPTA:1,2017-05-02T23:00:00Z,30.2791,-87.5561,44.22,1111122 
DISL,ioos:station:DISL:PPTA:1,2017-05-02T23:30:00Z,30.2791,-87.5561,45.72,1111122 
DISL,ioos:station:DISL:PPTA:1,2017-05-03T00:00:00Z,30.2791,-87.5561,50.87,1111122 
DISL,ioos:station:DISL:PPTA:1,2017-05-03T00:30:00Z,30.2791,-87.5561,50.84,1111122 
DISL,ioos:station:DISL:PPTA:1,2017-05-03T01:00:00Z,30.2791,-87.5561,53.44,1111122 
DISL,ioos:station:DISL:PPTA:1,2017-05-03T01:30:00Z,30.2791,-87.5561,54.74,1111122 
DISL,ioos:station:DISL:PPTA:1,2017-05-03T02:00:00Z,30.2791,-87.5561,55.43,1111122 
DISL,ioos:station:DISL:PPTA:1,2017-05-03T02:30:00Z,30.2791,-87.5561,60.56,1111122 
DISL,ioos:station:DISL:PPTA:1,2017-05-03T03:00:00Z,30.2791,-87.5561,64.76,1111122 
DISL,ioos:station:DISL:PPTA:1,2017-05-03T03:30:00Z,30.2791,-87.5561,68.31,1111122 
DISL,ioos:station:DISL:PPTA:1,2017-05-03T04:00:00Z,30.2791,-87.5561,70.57,1111122 
DISL,ioos:station:DISL:PPTA:1,2017-05-03T04:30:00Z,30.2791,-87.5561,72.68,1111122 
DISL,ioos:station:DISL:PPTA:1,2017-05-03T05:00:00Z,30.2791,-87.5561,76.28,1111122 
DISL,ioos:station:DISL:PPTA:1,2017-05-03T05:30:00Z,30.2791,-87.5561,72.18,1111122 
DISL,ioos:station:DISL:PPTA:1,2017-05-03T06:00:00Z,30.2791,-87.5561,71.91,1111122 
DISL,ioos:station:DISL:PPTA:1,2017-05-03T06:30:00Z,30.2791,-87.5561,74.1,1111122 
DISL,ioos:station:DISL:PPTA:1,2017-05-03T07:00:00Z,30.2791,-87.5561,76.72,1111122 
DISL,ioos:station:DISL:PPTA:1,2017-05-03T07:30:00Z,30.2791,-87.5561,83.5,1111122 
DISL,ioos:station:DISL:PPTA:1,2017-05-03T08:00:00Z,30.2791,-87.5561,88.5,1111122 
DISL,ioos:station:DISL:PPTA:1,2017-05-03T08:30:00Z,30.2791,-87.5561,90.6,1111122 
DISL,ioos:station:DISL:PPTA:1,2017-05-03T09:00:00Z,30.2791,-87.5561,90.0,1111122 
DISL,ioos:station:DISL:PPTA:1,2017-05-03T09:30:00Z,30.2791,-87.5561,89.7,1111122 
DISL,ioos:station:DISL:PPTA:1,2017-05-03T10:00:00Z,30.2791,-87.5561,84.8,1111122 
DISL,ioos:station:DISL:PPTA:1,2017-05-03T10:30:00Z,30.2791,-87.5561,81.4,1111122 
DISL,ioos:station:DISL:PPTA:1,2017-05-03T11:00:00Z,30.2791,-87.5561,79.86,1111122 
DISL,ioos:station:DISL:PPTA:1,2017-05-03T11:30:00Z,30.2791,-87.5561,81.3,1111122 
DISL,ioos:station:DISL:PPTA:1,2017-05-03T12:00:00Z,30.2791,-87.5561,80.2,1111122 
DISL,ioos:station:DISL:PPTA:1,2017-05-03T12:30:00Z,30.2791,-87.5561,77.21,1111122 
DISL,ioos:station:DISL:PPTA:1,2017-05-03T13:00:00Z,30.2791,-87.5561,73.68,1111122 
DISL,ioos:station:DISL:PPTA:1,2017-05-03T13:30:00Z,30.2791,-87.5561,77.76,1111122 
DISL,ioos:station:DISL:PPTA:1,2017-05-03T14:00:00Z,30.2791,-87.5561,71.53,1111122 
DISL,ioos:station:DISL:PPTA:1,2017-05-03T14:30:00Z,30.2791,-87.5561,67.23,1111122 
DISL,ioos:station:DISL:PPTA:1,2017-05-03T15:00:00Z,30.2791,-87.5561,66.21,1111122 
DISL,ioos:station:DISL:PPTA:1,2017-05-03T15:30:00Z,30.2791,-87.5561,64.01,1111122 
DISL,ioos:station:DISL:PPTA:1,2017-05-03T16:00:00Z,30.2791,-87.5561,60.8,1111122 
DISL,ioos:station:DISL:PPTA:1,2017-05-03T16:30:00Z,30.2791,-87.5561,58.01,1111122 
DISL,ioos:station:DISL:PPTA:1,2017-05-03T17:00:00Z,30.2791,-87.5561,57.33,1111122 
DISL,ioos:station:DISL:PPTA:1,2017-05-03T17:30:00Z,30.2791,-87.5561,57.67,1111122 
DISL,ioos:station:DISL:PPTA:1,2017-05-03T18:00:00Z,30.2791,-87.5561,57.53,1111122 
DISL,ioos:station:DISL:PPTA:1,2017-05-03T18:30:00Z,30.2791,-87.5561,60.53,1111122 
DISL,ioos:station:DISL:PPTA:1,2017-05-03T19:00:00Z,30.2791,-87.5561,55.39,1111122 
DISL,ioos:station:DISL:PPTA:1,2017-05-03T19:30:00Z,30.2791,-87.5561,58.93,1111122 
DISL,ioos:station:DISL:PPTA:1,2017-05-03T20:00:00Z,30.2791,-87.5561,64.55,1111122 
DISL,ioos:station:DISL:PPTA:1,2017-05-03T20:30:00Z,30.2791,-87.5561,64.69,1111122 
DISL,ioos:station:DISL:PPTA:1,2017-05-03T21:00:00Z,30.2791,-87.5561,67.13,1111122 
DISL,ioos:station:DISL:PPTA:1,2017-05-03T21:30:00Z,30.2791,-87.5561,64.13,1111122 
DISL,ioos:station:DISL:PPTA:1,2017-05-03T22:00:00Z,30.2791,-87.5561,69.88,1111122 
DISL,ioos:station:DISL:PPTA:1,2017-05-03T22:30:00Z,30.2791,-87.5561,75.07,1111122 
DISL,ioos:station:DISL:PPTA:1,2017-05-03T23:00:00Z,30.2791,-87.5561,84.2,1111122 
DISL,ioos:station:DISL:PPTA:1,2017-05-03T23:30:00Z,30.2791,-87.5561,89.7,1111122 
DISL,ioos:station:DISL:PPTA:1,2017-05-04T00:00:00Z,30.2791,-87.5561,90.7,1111122 
DISL,ioos:station:DISL:PPTA:1,2017-05-04T00:30:00Z,30.2791,-87.5561,90.9,1111122 
DISL,ioos:station:DISL:PPTA:1,2017-05-04T01:00:00Z,30.2791,-87.5561,69.62,1111122 
DISL,ioos:station:DISL:PPTA:1,2017-05-04T01:30:00Z,30.2791,-87.5561,68.57,1111122 
DISL,ioos:station:DISL:PPTA:1,2017-05-04T02:00:00Z,30.2791,-87.5561,68.42,1111122 
DISL,ioos:station:DISL:PPTA:1,2017-05-04T02:30:00Z,30.2791,-87.5561,67.73,1111122 
DISL,ioos:station:DISL:PPTA:1,2017-05-04T03:00:00Z,30.2791,-87.5561,55.54,1111122 
DISL,ioos:station:DISL:PPTA:1,2017-05-04T03:30:00Z,30.2791,-87.5561,49.02,1111122 
DISL,ioos:station:DISL:PPTA:1,2017-05-04T04:00:00Z,30.2791,-87.5561,50.14,1111122 
DISL,ioos:station:DISL:PPTA:1,2017-05-04T04:30:00Z,30.2791,-87.5561,78.52,1111122 
DISL,ioos:station:DISL:PPTA:1,2017-05-04T05:00:00Z,30.2791,-87.5561,82.4,1111122 
DISL,ioos:station:DISL:PPTA:1,2017-05-04T05:30:00Z,30.2791,-87.5561,86.2,1111122 
DISL,ioos:station:DISL:PPTA:1,2017-05-04T06:00:00Z,30.2791,-87.5561,89.5,1111122 
DISL,ioos:station:DISL:PPTA:1,2017-05-04T06:30:00Z,30.2791,-87.5561,91.1,1111122 
DISL,ioos:station:DISL:PPTA:1,2017-05-04T07:00:00Z,30.2791,-87.5561,92.2,1111122 
DISL,ioos:station:DISL:PPTA:1,2017-05-04T07:30:00Z,30.2791,-87.5561,92.9,1111122 
DISL,ioos:station:DISL:PPTA:1,2017-05-04T08:00:00Z,30.2791,-87.5561,92.9,1111122 
DISL,ioos:station:DISL:PPTA:1,2017-05-04T08:30:00Z,30.2791,-87.5561,85.6,1111122 
DISL,ioos:station:DISL:PPTA:1,2017-05-04T09:00:00Z,30.2791,-87.5561,89.8,1111122 
DISL,ioos:station:DISL:PPTA:1,2017-05-04T09:30:00Z,30.2791,-87.5561,93.4,1111122 
DISL,ioos:station:DISL:PPTA:1,2017-05-04T10:00:00Z,30.2791,-87.5561,95.5,1111122 
DISL,ioos:station:DISL:PPTA:1,2017-05-04T10:30:00Z,30.2791,-87.5561,96.3,1111122 
DISL,ioos:station:DISL:PPTA:1,2017-05-04T11:00:00Z,30.2791,-87.5561,96.3,1111122 
DISL,ioos:station:DISL:PPTA:1,2017-05-04T11:30:00Z,30.2791,-87.5561,96.1,1111122 
DISL,ioos:station:DISL:PPTA:1,2017-05-04T12:00:00Z,30.2791,-87.5561,95.5,1111122 
DISL,ioos:station:DISL:PPTA:1,2017-05-04T12:30:00Z,30.2791,-87.5561,87.0,1111122 
DISL,ioos:station:DISL:PPTA:1,2017-05-04T13:00:00Z,30.2791,-87.5561,77.76,1111122 
DISL,ioos:station:DISL:PPTA:1,2017-05-04T13:30:00Z,30.2791,-87.5561,74.16,1111122 
DISL,ioos:station:DISL:PPTA:1,2017-05-04T14:00:00Z,30.2791,-87.5561,71.31,1111122 
DISL,ioos:station:DISL:PPTA:1,2017-05-04T14:30:00Z,30.2791,-87.5561,70.76,1111122 
DISL,ioos:station:DISL:PPTA:1,2017-05-04T15:00:00Z,30.2791,-87.5561,70.14,1111122 
DISL,ioos:station:DISL:PPTA:1,2017-05-04T15:30:00Z,30.2791,-87.5561,70.89,1111122 
DISL,ioos:station:DISL:PPTA:1,2017-05-04T16:00:00Z,30.2791,-87.5561,72.63,1111122 
DISL,ioos:station:DISL:PPTA:1,2017-05-04T16:30:00Z,30.2791,-87.5561,72.14,1111122 
DISL,ioos:station:DISL:PPTA:1,2017-05-04T17:00:00Z,30.2791,-87.5561,66.17,1111122 
DISL,ioos:station:DISL:PPTA:1,2017-05-04T17:30:00Z,30.2791,-87.5561,65.11,1111122 
DISL,ioos:station:DISL:PPTA:1,2017-05-04T18:00:00Z,30.2791,-87.5561,72.92,1111122 
DISL,ioos:station:DISL:PPTA:1,2017-05-04T18:30:00Z,30.2791,-87.5561,70.74,1111122 
DISL,ioos:station:DISL:PPTA:1,2017-05-04T19:00:00Z,30.2791,-87.5561,70.8,1111122 
DISL,ioos:station:DISL:PPTA:1,2017-05-04T19:30:00Z,30.2791,-87.5561,65.79,1111122 
DISL,ioos:station:DISL:PPTA:1,2017-05-04T20:00:00Z,30.2791,-87.5561,66.08,1111122 
DISL,ioos:station:DISL:PPTA:1,2017-05-04T20:30:00Z,30.2791,-87.5561,79.07,1111122 
DISL,ioos:station:DISL:PPTA:1,2017-05-04T21:00:00Z,30.2791,-87.5561,88.8,1111122 
DISL,ioos:station:DISL:PPTA:1,2017-05-04T21:30:00Z,30.2791,-87.5561,83.0,1111122 
DISL,ioos:station:DISL:PPTA:1,2017-05-04T22:00:00Z,30.2791,-87.5561,83.6,1111122 
DISL,ioos:station:DISL:PPTA:1,2017-05-04T22:30:00Z,30.2791,-87.5561,76.53,1111122 
DISL,ioos:station:DISL:PPTA:1,2017-05-04T23:00:00Z,30.2791,-87.5561,66.91,1111122 
DISL,ioos:station:DISL:PPTA:1,2017-05-04T23:30:00Z,30.2791,-87.5561,63.75,1111122 
DISL,ioos:station:DISL:PPTA:1,2017-05-05T00:00:00Z,30.2791,-87.5561,62.05,1111122 
DISL,ioos:station:DISL:PPTA:1,2017-05-05T00:30:00Z,30.2791,-87.5561,62.49,1111122 
DISL,ioos:station:DISL:PPTA:1,2017-05-05T01:00:00Z,30.2791,-87.5561,62.16,1111122 
DISL,ioos:station:DISL:PPTA:1,2017-05-05T01:30:00Z,30.2791,-87.5561,63.47,1111122 
DISL,ioos:station:DISL:PPTA:1,2017-05-05T02:00:00Z,30.2791,-87.5561,62.62,1111122 
DISL,ioos:station:DISL:PPTA:1,2017-05-05T02:30:00Z,30.2791,-87.5561,64.32,1111122 
DISL,ioos:station:DISL:PPTA:1,2017-05-05T03:00:00Z,30.2791,-87.5561,61.05,1111122 
DISL,ioos:station:DISL:PPTA:1,2017-05-05T03:30:00Z,30.2791,-87.5561,65.87,1111122 
DISL,ioos:station:DISL:PPTA:1,2017-05-05T04:00:00Z,30.2791,-87.5561,63.25,1111122 
DISL,ioos:station:DISL:PPTA:1,2017-05-05T04:30:00Z,30.2791,-87.5561,67.01,1111122 
DISL,ioos:station:DISL:PPTA:1,2017-05-05T05:00:00Z,30.2791,-87.5561,66.47,1111122 
DISL,ioos:station:DISL:PPTA:1,2017-05-05T05:30:00Z,30.2791,-87.5561,63.4,1111122 
DISL,ioos:station:DISL:PPTA:1,2017-05-05T06:00:00Z,30.2791,-87.5561,61.94,1111122 
DISL,ioos:station:DISL:PPTA:1,2017-05-05T06:30:00Z,30.2791,-87.5561,61.29,1111122 
DISL,ioos:station:DISL:PPTA:1,2017-05-05T07:00:00Z,30.2791,-87.5561,63.89,1111122 
DISL,ioos:station:DISL:PPTA:1,2017-05-05T07:30:00Z,30.2791,-87.5561,64.33,1111122 
DISL,ioos:station:DISL:PPTA:1,2017-05-05T08:00:00Z,30.2791,-87.5561,66.01,1111122 
DISL,ioos:station:DISL:PPTA:1,2017-05-05T08:30:00Z,30.2791,-87.5561,67.35,1111122 
DISL,ioos:station:DISL:PPTA:1,2017-05-05T09:00:00Z,30.2791,-87.5561,68.75,1111122 
DISL,ioos:station:DISL:PPTA:1,2017-05-05T09:30:00Z,30.2791,-87.5561,66.09,1111122 
DISL,ioos:station:DISL:PPTA:1,2017-05-05T10:00:00Z,30.2791,-87.5561,67.69,1111122 
DISL,ioos:station:DISL:PPTA:1,2017-05-05T10:30:00Z,30.2791,-87.5561,66.22,1111122 
DISL,ioos:station:DISL:PPTA:1,2017-05-05T11:00:00Z,30.2791,-87.5561,67.63,1111122 
DISL,ioos:station:DISL:PPTA:1,2017-05-05T11:30:00Z,30.2791,-87.5561,63.97,1111122 
DISL,ioos:station:DISL:PPTA:1,2017-05-05T12:00:00Z,30.2791,-87.5561,59.04,1111122 
DISL,ioos:station:DISL:PPTA:1,2017-05-05T12:30:00Z,30.2791,-87.5561,60.91,1111122 
DISL,ioos:station:DISL:PPTA:1,2017-05-05T13:00:00Z,30.2791,-87.5561,58.71,1111122 
DISL,ioos:station:DISL:PPTA:1,2017-05-05T13:30:00Z,30.2791,-87.5561,57.91,1111122 
DISL,ioos:station:DISL:PPTA:1,2017-05-05T14:00:00Z,30.2791,-87.5561,59.84,1111122 
DISL,ioos:station:DISL:PPTA:1,2017-05-05T14:30:00Z,30.2791,-87.5561,52.7,1111122 
DISL,ioos:station:DISL:PPTA:1,2017-05-05T15:00:00Z,30.2791,-87.5561,49.52,1111122 
DISL,ioos:station:DISL:PPTA:1,2017-05-05T15:30:00Z,30.2791,-87.5561,44.7,1111122 
DISL,ioos:station:DISL:PPTA:1,2017-05-05T16:00:00Z,30.2791,-87.5561,45.55,1111122 
DISL,ioos:station:DISL:PPTA:1,2017-05-05T16:30:00Z,30.2791,-87.5561,47.42,1111122 
DISL,ioos:station:DISL:PPTA:1,2017-05-05T17:00:00Z,30.2791,-87.5561,46.23,1111122 
DISL,ioos:station:DISL:PPTA:1,2017-05-05T17:30:00Z,30.2791,-87.5561,45.08,1111122 
DISL,ioos:station:DISL:PPTA:1,2017-05-05T18:00:00Z,30.2791,-87.5561,47.78,1111122 
DISL,ioos:station:DISL:PPTA:1,2017-05-05T18:30:00Z,30.2791,-87.5561,44.06,1111122 
DISL,ioos:station:DISL:PPTA:1,2017-05-05T19:00:00Z,30.2791,-87.5561,47.26,1111122 
DISL,ioos:station:DISL:PPTA:1,2017-05-05T19:30:00Z,30.2791,-87.5561,48.28,1111122 
DISL,ioos:station:DISL:PPTA:1,2017-05-05T20:00:00Z,30.2791,-87.5561,51.19,1111122 
DISL,ioos:station:DISL:PPTA:1,2017-05-05T20:30:00Z,30.2791,-87.5561,46.41,1111122 
DISL,ioos:station:DISL:PPTA:1,2017-05-05T21:00:00Z,30.2791,-87.5561,49.41,1111122 
DISL,ioos:station:DISL:PPTA:1,2017-05-05T21:30:00Z,30.2791,-87.5561,44.94,1111122 
DISL,ioos:station:DISL:PPTA:1,2017-05-05T22:00:00Z,30.2791,-87.5561,45.69,1111122 
DISL,ioos:station:DISL:PPTA:1,2017-05-05T22:30:00Z,30.2791,-87.5561,46.51,1111122 
DISL,ioos:station:DISL:PPTA:1,2017-05-05T23:00:00Z,30.2791,-87.5561,46.64,1111122 
DISL,ioos:station:DISL:PPTA:1,2017-05-05T23:30:00Z,30.2791,-87.5561,41.52,1111122 
DISL,ioos:station:DISL:PPTA:1,2017-05-06T00:00:00Z,30.2791,-87.5561,38.89,1111122 
DISL,ioos:station:DISL:PPTA:1,2017-05-06T00:30:00Z,30.2791,-87.5561,40.33,1111122 
DISL,ioos:station:DISL:PPTA:1,2017-05-06T01:00:00Z,30.2791,-87.5561,47.27,1111122 
DISL,ioos:station:DISL:PPTA:1,2017-05-06T01:30:00Z,30.2791,-87.5561,50.58,1111122 
DISL,ioos:station:DISL:PPTA:1,2017-05-06T02:00:00Z,30.2791,-87.5561,50.62,1111122 
DISL,ioos:station:DISL:PPTA:1,2017-05-06T02:30:00Z,30.2791,-87.5561,44.92,1111122 
DISL,ioos:station:DISL:PPTA:1,2017-05-06T03:00:00Z,30.2791,-87.5561,47.11,1111122 
DISL,ioos:station:DISL:PPTA:1,2017-05-06T03:30:00Z,30.2791,-87.5561,45.82,1111122 
DISL,ioos:station:DISL:PPTA:1,2017-05-06T04:00:00Z,30.2791,-87.5561,44.55,1111122 
DISL,ioos:station:DISL:PPTA:1,2017-05-06T04:30:00Z,30.2791,-87.5561,46.3,1111122 
DISL,ioos:station:DISL:PPTA:1,2017-05-06T05:00:00Z,30.2791,-87.5561,44.86,1111122 
DISL,ioos:station:DISL:PPTA:1,2017-05-06T05:30:00Z,30.2791,-87.5561,46.23,1111122 
DISL,ioos:station:DISL:PPTA:1,2017-05-06T06:00:00Z,30.2791,-87.5561,51.29,1111122 
DISL,ioos:station:DISL:PPTA:1,2017-05-06T06:30:00Z,30.2791,-87.5561,51.98,1111122 
DISL,ioos:station:DISL:PPTA:1,2017-05-06T07:00:00Z,30.2791,-87.5561,55.12,1111122 
DISL,ioos:station:DISL:PPTA:1,2017-05-06T07:30:00Z,30.2791,-87.5561,55.29,1111122 
DISL,ioos:station:DISL:PPTA:1,2017-05-06T08:00:00Z,30.2791,-87.5561,59.05,1111122 
DISL,ioos:station:DISL:PPTA:1,2017-05-06T08:30:00Z,30.2791,-87.5561,61.17,1111122 
DISL,ioos:station:DISL:PPTA:1,2017-05-06T09:00:00Z,30.2791,-87.5561,62.09,1111122 
DISL,ioos:station:DISL:PPTA:1,2017-05-06T09:30:00Z,30.2791,-87.5561,66.1,1111122 
DISL,ioos:station:DISL:PPTA:1,2017-05-06T10:00:00Z,30.2791,-87.5561,67.7,1111122 
DISL,ioos:station:DISL:PPTA:1,2017-05-06T10:30:00Z,30.2791,-87.5561,70.78,1111122 
DISL,ioos:station:DISL:PPTA:1,2017-05-06T11:00:00Z,30.2791,-87.5561,69.29,1111122 
DISL,ioos:station:DISL:PPTA:1,2017-05-06T11:30:00Z,30.2791,-87.5561,71.95,1111122 
DISL,ioos:station:DISL:PPTA:1,2017-05-06T12:00:00Z,30.2791,-87.5561,69.31,1111122 
DISL,ioos:station:DISL:PPTA:1,2017-05-06T12:30:00Z,30.2791,-87.5561,62.73,1111122 
DISL,ioos:station:DISL:PPTA:1,2017-05-06T13:00:00Z,30.2791,-87.5561,59.71,1111122 
DISL,ioos:station:DISL:PPTA:1,2017-05-06T13:30:00Z,30.2791,-87.5561,56.83,1111122 
DISL,ioos:station:DISL:PPTA:1,2017-05-06T14:00:00Z,30.2791,-87.5561,49.03,1111122 
DISL,ioos:station:DISL:PPTA:1,2017-05-06T14:30:00Z,30.2791,-87.5561,39.09,1111122 
DISL,ioos:station:DISL:PPTA:1,2017-05-06T15:00:00Z,30.2791,-87.5561,30.29,1111122 
DISL,ioos:station:DISL:PPTA:1,2017-05-06T15:30:00Z,30.2791,-87.5561,31.96,1111122 
DISL,ioos:station:DISL:PPTA:1,2017-05-06T16:00:00Z,30.2791,-87.5561,28.03,1111122 
DISL,ioos:station:DISL:PPTA:1,2017-05-06T16:30:00Z,30.2791,-87.5561,33.24,1111122 
DISL,ioos:station:DISL:PPTA:1,2017-05-06T17:00:00Z,30.2791,-87.5561,27.51,1111122 
DISL,ioos:station:DISL:PPTA:1,2017-05-06T17:30:00Z,30.2791,-87.5561,31.13,1111122 
DISL,ioos:station:DISL:PPTA:1,2017-05-06T18:00:00Z,30.2791,-87.5561,30.69,1111122 
DISL,ioos:station:DISL:PPTA:1,2017-05-06T18:30:00Z,30.2791,-87.5561,31.91,1111122 
DISL,ioos:station:DISL:PPTA:1,2017-05-06T19:00:00Z,30.2791,-87.5561,36.96,1111122 
DISL,ioos:station:DISL:PPTA:1,2017-05-06T19:30:00Z,30.2791,-87.5561,40.16,1111122 
DISL,ioos:station:DISL:PPTA:1,2017-05-06T20:00:00Z,30.2791,-87.5561,40.06,1111122 
DISL,ioos:station:DISL:PPTA:1,2017-05-06T20:30:00Z,30.2791,-87.5561,41.02,1111122 
DISL,ioos:station:DISL:PPTA:1,2017-05-06T21:00:00Z,30.2791,-87.5561,41.23,1111122 
DISL,ioos:station:DISL:PPTA:1,2017-05-06T21:30:00Z,30.2791,-87.5561,43.11,1111122 
DISL,ioos:station:DISL:PPTA:1,2017-05-06T22:00:00Z,30.2791,-87.5561,44.24,1111122 
DISL,ioos:station:DISL:PPTA:1,2017-05-06T22:30:00Z,30.2791,-87.5561,44.75,1111122 
DISL,ioos:station:DISL:PPTA:1,2017-05-06T23:00:00Z,30.2791,-87.5561,44.17,1111122 
DISL,ioos:station:DISL:PPTA:1,2017-05-06T23:30:00Z,30.2791,-87.5561,48.53,1111122 
DISL,ioos:station:DISL:PPTA:1,2017-05-07T00:00:00Z,30.2791,-87.5561,51.33,1111122 
DISL,ioos:station:DISL:PPTA:1,2017-05-07T00:30:00Z,30.2791,-87.5561,54.68,1111122 